Flag for India Weather past 2 weeks in Thiruvananthapuram, Kerala, India

Now
82 °F

Passing clouds.


Feels Like: 89 °F
Forecast: 83 / 89 °F
Wind: 7 mph from West

Location: Thiruvananthapuram

Current Time: May 28, 2015 at 10:39:42 PM

Latest Report: May 28, 2015 at 9:40 PM


Visibility: 2 mi

Pressure: 29.74 "Hg

Humidity: 79%

Dew point: 75 °F

Location of ThiruvananthapuramLocation

Historic Weather in Thiruvananthapuram — Graph

°F

Thiruvananthapuram temperature yesterday

Maximum temperature yesterday: 90 °F (at 11:40 AM)
Minimum temperature yesterday: 79 °F (at 6:10 AM)
Average temperature yesterday: 84 °F

Past Weeks' High & Low Weather Summary

 TemperatureHumidityPressure
High91 °F (May 22, 3:10 PM)100% (May 17, 4:10 AM)29.86 "Hg (May 17, 4:10 AM)
Low73 °F (May 17, 4:10 AM)59% (May 23, 12:10 PM)29.65 "Hg (May 14, 3:40 PM)
Average82 °F79%29.77 "Hg
* Reported May 13 8:40 PM — May 28 9:10 PM, Thiruvananthapuram, Weather by CustomWeather, © 2015

Note: Actual official high and low records may vary slightly from our data, if they occured in-between our weather recording intervals... More about our weather records

Advertising

Thiruvananthapuram weather history for previous 24 hours

 ConditionsComfort  
Time TempWeatherWind HumidityBarometerVisibility
9:10 PM
Thu, May 28
82 °FPassing clouds.7 mph79%29.74 "Hg2 mi
8:40 PM82 °FPassing clouds.7 mph79%29.74 "Hg2 mi
8:10 PM84 °FPassing clouds.8 mph74%29.74 "Hg2 mi
7:10 PM84 °FPassing clouds.9 mph74%29.71 "Hg2 mi
6:10 PM86 °FScattered clouds.12 mph70%29.68 "Hg3 mi
5:40 PM88 °FScattered clouds.9 mph66%29.68 "Hg4 mi
5:10 PM88 °FScattered clouds.9 mph66%29.65 "Hg4 mi
4:40 PM90 °FScattered clouds.12 mph63%29.65 "Hg4 mi
4:10 PM90 °FScattered clouds.9 mph63%29.65 "Hg4 mi
3:40 PM90 °FScattered clouds.12 mph63%29.65 "Hg4 mi
3:10 PM91 °FScattered clouds.12 mph59%29.65 "Hg4 mi
2:40 PM91 °FScattered clouds.9 mph59%29.68 "Hg4 mi
2:10 PM90 °FScattered clouds.12 mph63%29.68 "Hg4 mi
1:10 PM90 °FHaze.9 mph63%29.71 "Hg3 mi
12:40 PM90 °FHaze.9 mph63%29.74 "Hg3 mi
12:10 PM88 °FHaze.8 mph66%29.74 "Hg3 mi
11:40 AM88 °FHaze.9 mph66%29.74 "Hg3 mi
11:10 AM88 °FHaze.7 mph66%29.74 "Hg3 mi
10:40 AM88 °FHaze.8 mph66%29.74 "Hg3 mi
10:10 AM86 °FScattered clouds.7 mph70%29.77 "Hg3 mi
9:40 AM84 °FScattered clouds.8 mph74%29.77 "Hg3 mi
9:10 AM84 °FScattered clouds.7 mph74%29.77 "Hg3 mi
8:40 AM82 °FScattered clouds.6 mph74%29.77 "Hg2 mi
8:10 AM81 °FPartly sunny.6 mph74%29.77 "Hg2 mi
7:40 AM81 °FPartly sunny.10 mph74%29.77 "Hg2 mi
7:10 AM79 °FPartly sunny.7 mph79%29.74 "Hg2 mi
6:40 AM79 °FScattered clouds.6 mph79%29.74 "Hg2 mi
6:10 AM79 °FPassing clouds.8 mph79%29.74 "Hg2 mi
5:40 AM79 °FPassing clouds.6 mph79%29.74 "Hg2 mi
5:10 AM79 °FPassing clouds.6 mph79%29.74 "Hg2 mi
4:40 AM79 °FPartly cloudy.7 mph79%29.74 "Hg2 mi
4:10 AM79 °FPartly cloudy.3 mph79%29.74 "Hg2 mi
3:40 AM79 °FPartly cloudy.6 mph79%29.74 "Hg2 mi
3:10 AM79 °FPassing clouds.3 mph79%29.74 "Hg2 mi
2:40 AM79 °FPassing clouds.6 mph79%29.74 "Hg2 mi
1:40 AM79 °FPassing clouds.3 mph79%29.74 "Hg2 mi
1:10 AM79 °FPassing clouds.3 mph79%29.74 "Hg2 mi
12:40 AM81 °FPassing clouds.3 mph79%29.77 "Hg2 mi
11:40 PM
Wed, May 27
81 °FPassing clouds.5 mph79%29.80 "Hg2 mi
11:10 PM81 °FPassing clouds.6 mph79%29.77 "Hg2 mi
10:10 PM82 °FPassing clouds.7 mph74%29.77 "Hg2 mi
Weather by CustomWeather, © 2015

See weather overviewHow to use our weather pages